(201188) = 2002 PT73

Discovered at Socorro on 2002-08-12 by LINEAR.

Orbit

Orbit type: Main Belt

Note: WebGL enabled browser required.

epoch2023-09-13.0
epoch JD2460200.5
perihelion date2023-08-26.64302
perihelion JD2460183.14302
argument of perihelion (°)87.76507
ascending node (°)258.88373
inclination (°)10.55331
eccentricity0.1184107
perihelion distance (AU)2.6418904
Tisserand w.r.t. Jupiter3.2
ΔV w.r.t. Earth (km/sec)10.7
semimajor axis (AU)2.9967360
mean anomaly (°)3.29766
mean daily motion (°/day)0.18999020
aphelion distance (AU)3.352
period (years)5.19
P-vector [x]0.95638780
P-vector [y]-0.28167213
P-vector [z]0.07735112
Q-vector [x]0.23027211
Q-vector [y]0.88996081
Q-vector [z]0.39362993
absolute magnitude15.33
phase slope0.15
uncertainty0
referenceMPEC 2024-A48
observations used602
oppositions14
arc length (days)7811
first opposition used2002
last opposition used2023
residual rms (arc-secs)0.73
perturbers coarse indicatorM-v
perturbers precise indicator003Ek
first observation date used2002-07-18.0
last observation date used2023-12-06.0
computer nameMPCLINUX
JD of orbit computation2456937.324745
perihelion JD uncertainty (days)2.2903E-04
argument of perihelion uncertainty (°)5.9796E-05
ascending node uncertainty (°)3.3503E-05
inclination uncertainty (°)8.4787E-06
eccentricity uncertainty 6.5855E-08
perihelion distance uncertainty (AU)1.9205E-07
Minimum Orbit Intersection Distances (in AU)
for orbit epoch: 2460200.5, reference: E2024-A48
Mercury2.27171
Venus1.94385
Earth1.66123
Mars1.31479
Jupiter2.08348
Saturn5.93255
Uranus15.1741
Neptune27.0015

Observations

612 total observations over interval: 2002 07 18.30890 – 2023 12 06.156712
These data are available for download (format description).

Date (UT) J2000 RA J2000 Dec Magn Location Ref
2002 07 18.30890 21 50 09.28 +01 14 08.9 19.9   704 – Lincoln Laboratory ETS, New Mexico MPS 61355
2002 07 18.32235 21 50 08.88 +01 14 11.4 19.8   704 – Lincoln Laboratory ETS, New Mexico MPS 61355
2002 07 18.33573 21 50 08.42 +01 14 13.3 19.4   704 – Lincoln Laboratory ETS, New Mexico MPS 61355
2002 07 18.34903 21 50 08.06 +01 14 16.4 19.6   704 – Lincoln Laboratory ETS, New Mexico MPS 61355
2002 08 04.35667 21 39 16.46 +01 39 38.8 18.7   644 – Palomar Mountain/NEAT MPS 61355
2002 08 04.36715 21 39 15.95 +01 39 38.8 18.9   644 – Palomar Mountain/NEAT MPS 61355
2002 08 04.37754 21 39 15.47 +01 39 38.7 18.6   644 – Palomar Mountain/NEAT MPS 61355
2002 08 12.29991 21 33 01.35 +01 33 36.1 18.9   704 – Lincoln Laboratory ETS, New Mexico MPS 60222
2002 08 12.32983 21 32 59.87 +01 33 33.2 19.0   704 – Lincoln Laboratory ETS, New Mexico MPS 60222
2002 08 12.34487 21 32 59.11 +01 33 31.5 19.1   704 – Lincoln Laboratory ETS, New Mexico MPS 60222
2002 08 12.35981 21 32 58.36 +01 33 29.6 19.2   704 – Lincoln Laboratory ETS, New Mexico MPS 60222
2002 08 13.29057 21 32 13.52 +01 32 06.3 19.3   704 – Lincoln Laboratory ETS, New Mexico MPS 60222
2002 08 13.30572 21 32 12.66 +01 32 03.5 19.7   704 – Lincoln Laboratory ETS, New Mexico MPS 60222
2002 08 13.32101 21 32 11.88 +01 32 01.6 19.6   704 – Lincoln Laboratory ETS, New Mexico MPS 60222
2002 08 13.33570 21 32 11.12 +01 32 00.3 19.6   704 – Lincoln Laboratory ETS, New Mexico MPS 60222
2002 08 13.35045 21 32 10.41 +01 31 59.5 19.3   704 – Lincoln Laboratory ETS, New Mexico MPS 60222
2002 08 25.22105 21 22 46.25 +01 02 37.5 18.8   644 – Palomar Mountain/NEAT MPS 61355
2002 08 25.24184 21 22 45.26 +01 02 33.4 18.7   644 – Palomar Mountain/NEAT MPS 61355
2002 08 25.26278 21 22 44.28 +01 02 29.3 18.7   644 – Palomar Mountain/NEAT MPS 61355
2002 09 04.22771 21 15 50.89 +00 25 39.8 19.0   644 – Palomar Mountain/NEAT MPS 61355
2002 09 04.24918 21 15 50.06 +00 25 34.6 19.1   644 – Palomar Mountain/NEAT MPS 61355
2002 09 04.28137 21 15 48.81 +00 25 26.9 18.8   644 – Palomar Mountain/NEAT MPS 61355
2002 09 21.20286 21 08 28.67 -00 46 36.8 19.4   644 – Palomar Mountain/NEAT MPS 63323
2002 09 21.22387 21 08 28.32 -00 46 42.3 19.6   644 – Palomar Mountain/NEAT MPS 63323
2002 09 21.24495 21 08 27.98 -00 46 47.4 19.2   644 – Palomar Mountain/NEAT MPS 63323
2003 11 21.32480 04 59 17.24 +25 13 47.2 19.6   704 – Lincoln Laboratory ETS, New Mexico MPS 93684
2003 11 21.33386 04 59 16.83 +25 13 43.9 20.1   704 – Lincoln Laboratory ETS, New Mexico MPS 93684
2003 11 21.33777 04 59 16.63 +25 13 43.2 20.2   704 – Lincoln Laboratory ETS, New Mexico MPS 93684
2003 11 21.34688 04 59 16.08 +25 13 40.8 20.2   704 – Lincoln Laboratory ETS, New Mexico MPS 93684
2003 11 21.35058 04 59 15.87 +25 13 40.0 20.0   704 – Lincoln Laboratory ETS, New Mexico MPS 93684
2003 11 21.35971 04 59 15.46 +25 13 36.6 20.2   704 – Lincoln Laboratory ETS, New Mexico MPS 93684
2003 11 21.36350 04 59 15.20 +25 13 37.1 20.6   704 – Lincoln Laboratory ETS, New Mexico MPS 93684
2003 11 21.37253 04 59 14.80 +25 13 35.3 20.5   704 – Lincoln Laboratory ETS, New Mexico MPS 93684
2003 12 14.33013 04 38 16.85 +23 26 00.0 19.9 V 291 – LPL/Spacewatch II MPS 93684
2003 12 14.36173 04 38 15.15 +23 25 50.4 19.6 V 291 – LPL/Spacewatch II MPS 93684
2003 12 14.39174 04 38 13.52 +23 25 41.2 19.6 V 291 – LPL/Spacewatch II MPS 93684
2003 12 17.32999 04 35 42.86 +23 11 05.3 19.8   644 – Palomar Mountain/NEAT MPS 93684
2003 12 17.35608 04 35 41.57 +23 10 57.4 19.7   644 – Palomar Mountain/NEAT MPS 93684
2003 12 17.39384 04 35 39.61 +23 10 46.0 20.1   644 – Palomar Mountain/NEAT MPS 93684
2003 12 18.27423 04 34 55.94 +23 06 24.5 19.5   704 – Lincoln Laboratory ETS, New Mexico MPS 93684
2003 12 18.28832 04 34 55.21 +23 06 20.6 20.1   704 – Lincoln Laboratory ETS, New Mexico MPS 93684
2003 12 18.30235 04 34 54.53 +23 06 15.9 20.4   704 – Lincoln Laboratory ETS, New Mexico MPS 93684
2003 12 18.31715 04 34 53.76 +23 06 11.8 20.1   704 – Lincoln Laboratory ETS, New Mexico MPS 93684
2003 12 19.22079 04 34 09.70 +23 01 45.2 20.3   704 – Lincoln Laboratory ETS, New Mexico MPS 94650
2003 12 19.23392 04 34 09.17 +23 01 42.3 20.4   704 – Lincoln Laboratory ETS, New Mexico MPS 94650
2003 12 19.24725 04 34 08.30 +23 01 38.2 20.4   704 – Lincoln Laboratory ETS, New Mexico MPS 94650
2003 12 19.26037 04 34 07.66 +23 01 34.0 19.8   704 – Lincoln Laboratory ETS, New Mexico MPS 94650
2003 12 19.30350 04 34 05.57 +23 01 20.1 20.1 V 691 – Steward Observatory, Kitt Peak-Spacewatch MPS 94650
2003 12 19.33124 04 34 04.20 +23 01 11.8 19.9 V 691 – Steward Observatory, Kitt Peak-Spacewatch MPS 94650
2003 12 19.35902 04 34 02.79 +23 01 03.7 19.7 V 691 – Steward Observatory, Kitt Peak-Spacewatch MPS 94650
2003 12 21.27090 04 32 32.14 +22 51 43.4 19.6   704 – Lincoln Laboratory ETS, New Mexico MPS 94650
2003 12 21.29764 04 32 30.91 +22 51 35.8 20.1   704 – Lincoln Laboratory ETS, New Mexico MPS 94650
2003 12 21.31097 04 32 30.24 +22 51 31.6 19.8   704 – Lincoln Laboratory ETS, New Mexico MPS 94650
2003 12 21.32434 04 32 29.57 +22 51 27.6 19.6   704 – Lincoln Laboratory ETS, New Mexico MPS 94650
2003 12 29.26522 04 26 56.81 +22 14 05.9 20.5 V 691 – Steward Observatory, Kitt Peak-Spacewatch MPS 95765
2003 12 29.29809 04 26 55.55 +22 13 57.1 20.3 V 691 – Steward Observatory, Kitt Peak-Spacewatch MPS 95765
2003 12 29.33189 04 26 54.28 +22 13 47.5 20.8 V 691 – Steward Observatory, Kitt Peak-Spacewatch MPS 95765
2007 06 18.42448 20 36 01.27 -09 31 44.2 19.9 V 691 – Steward Observatory, Kitt Peak-Spacewatch MPS 211040
2007 06 18.44217 20 36 00.91 -09 31 39.8 19.9 V 691 – Steward Observatory, Kitt Peak-Spacewatch MPS 211040
2007 06 18.45986 20 36 00.54 -09 31 35.3 19.7 V 691 – Steward Observatory, Kitt Peak-Spacewatch MPS 211040
2007 06 26.34895 20 32 47.25 -09 00 27.7   691 – Steward Observatory, Kitt Peak-Spacewatch MPS 211369
2007 06 26.36662 20 32 46.69 -09 00 24.0   691 – Steward Observatory, Kitt Peak-Spacewatch MPS 211369
2007 06 26.38428 20 32 46.12 -09 00 20.2   691 – Steward Observatory, Kitt Peak-Spacewatch MPS 211369
2007 07 13.99122 20 21 09.19 -08 15 00.6 18.8 V A50 – Andrushivka Astronomical Observatory MPS 212250
2007 07 14.01350 20 21 08.08 -08 14 58.1 18.9 V A50 – Andrushivka Astronomical Observatory MPS 212250
2007 07 15.28374 20 20 07.34 -08 13 04.9 19.0 C 704 – Lincoln Laboratory ETS, New Mexico MPS 291429
2007 07 15.30420 20 20 06.18 -08 13 02.4 16.7 C 704 – Lincoln Laboratory ETS, New Mexico MPS 291429
2007 07 15.32467 20 20 05.27 -08 13 01.0 18.8 C 704 – Lincoln Laboratory ETS, New Mexico MPS 291429
2008 10 26.26713 03 43 47.01 +27 31 14.5 20.3 V 691 – Steward Observatory, Kitt Peak-Spacewatch MPS 261368
2008 10 26.28485 03 43 46.19 +27 31 10.7 19.7 V 691 – Steward Observatory, Kitt Peak-Spacewatch MPS 261368
2008 10 26.30256 03 43 45.38 +27 31 06.7 19.7 V 691 – Steward Observatory, Kitt Peak-Spacewatch MPS 261368
2008 10 30.27753 03 40 48.65 +27 14 24.9 19.6 V 691 – Steward Observatory, Kitt Peak-Spacewatch MPS 261368
2008 10 30.29525 03 40 47.80 +27 14 20.3 19.4 V 691 – Steward Observatory, Kitt Peak-Spacewatch MPS 261368
2008 10 30.31296 03 40 46.94 +27 14 15.5 19.4 V 691 – Steward Observatory, Kitt Peak-Spacewatch MPS 261368
2008 11 02.30844 03 38 23.75 +27 00 11.7 19.3   704 – Lincoln Laboratory ETS, New Mexico MPS 263083
2008 11 02.32016 03 38 23.30 +27 00 08.4 19.9   704 – Lincoln Laboratory ETS, New Mexico MPS 263083
2008 11 02.33195 03 38 22.55 +27 00 04.7 19.6   704 – Lincoln Laboratory ETS, New Mexico MPS 263083
2008 11 02.34373 03 38 22.01 +27 00 01.9 19.5   704 – Lincoln Laboratory ETS, New Mexico MPS 263083
2008 11 02.35549 03 38 21.38 +26 59 58.9 19.5   704 – Lincoln Laboratory ETS, New Mexico MPS 263083
2008 11 03.26876 03 37 36.49 +26 55 25.5 19.3 V 691 – Steward Observatory, Kitt Peak-Spacewatch MPS 263083
2008 11 03.28637 03 37 35.59 +26 55 20.3 19.3 V 691 – Steward Observatory, Kitt Peak-Spacewatch MPS 263083
2008 11 03.30400 03 37 34.68 +26 55 15.1 19.6 V 691 – Steward Observatory, Kitt Peak-Spacewatch MPS 263083
2008 11 04.25376 03 36 47.20 +26 50 23.7 19.8   704 – Lincoln Laboratory ETS, New Mexico MPS 263083
